Back to catalog

SL-8 DEB

AliveLEO
NORAD 15490·DEBRIS·🇷🇺 Russia

Launched Jan 17, 1985 from Plesetsk Cosmodrome

Loading…

Next Passes (next 24 hours)

TLE

FreshSource: Space-Track

Epoch: Sep 13, 2026, 04:13 UTC

1 15490U 85006C   26256.17579758  .00001285  00000-0  24381-3 0  9995
2 15490  74.0311 165.0532 0004465 265.6825  94.3833 14.65297396196460

Track SL-8 DEB in real time with AllMySat

Download on the App Store